DLH430 KDEN-KSAN

Flight info

Callsign DLH430
Flight time 0h 57m
Altitude 38000
Route BAYLR6 TEHRU PLNDL Q86 TTRUE LUCKI1
Aircraft A346/H-SDE2E3FGHIJ3J4J5M1RWXY/LB1D1

Departure

Time 2026-05-08 00:37
Airport Denver International Airport (KDEN)

Arrival

Time 2026-05-08 01:34
Airport San Diego International Airport (KSAN)
Time Latitude Longitude Altitude Speed Heading
2026-05-08 00:07 39.85463 -104.68058 5388 ft 0 kts 180°
2026-05-08 00:28 39.85530 -104.68058 5386 ft 0 kts 180°
2026-05-08 00:28 39.85557 -104.68058 5379 ft 0 kts 180°
2026-05-08 00:28 39.85583 -104.68058 5379 ft 0 kts 180°
2026-05-08 00:28 39.85603 -104.68058 5378 ft 0 kts 180°
2026-05-08 00:29 39.85602 -104.68058 5378 ft 0 kts 180°
2026-05-08 00:30 39.85601 -104.68058 5378 ft 0 kts 182°
2026-05-08 00:30 39.85594 -104.68061 5377 ft 1 kts 219°
2026-05-08 00:30 39.85592 -104.68072 5374 ft 0 kts 272°
2026-05-08 00:31 39.85593 -104.68082 5376 ft 2 kts 273°
2026-05-08 00:32 39.85594 -104.68110 5375 ft 4 kts 274°
2026-05-08 00:32 39.85596 -104.68158 5387 ft 6 kts 272°
2026-05-08 00:32 39.85597 -104.68224 5385 ft 8 kts 271°
2026-05-08 00:32 39.85598 -104.68315 5382 ft 12 kts 269°
2026-05-08 00:33 39.85553 -104.68395 5379 ft 13 kts 193°
2026-05-08 00:33 39.85466 -104.68400 5384 ft 12 kts 180°
2026-05-08 00:33 39.85379 -104.68402 5385 ft 13 kts 181°
2026-05-08 00:33 39.85281 -104.68403 5386 ft 16 kts 180°
2026-05-08 00:34 39.85216 -104.68438 5380 ft 9 kts 246°
2026-05-08 00:34 39.85207 -104.68533 5386 ft 12 kts 267°
2026-05-08 00:34 39.85204 -104.68668 5376 ft 18 kts 268°
2026-05-08 00:34 39.85200 -104.68849 5368 ft 22 kts 269°
2026-05-08 00:35 39.85196 -104.69071 5362 ft 26 kts 269°
2026-05-08 00:35 39.85200 -104.69325 5352 ft 30 kts 271°
2026-05-08 00:35 39.85203 -104.69543 5348 ft 20 kts 270°
2026-05-08 00:35 39.85218 -104.69635 5347 ft 9 kts 312°
2026-05-08 00:36 39.85289 -104.69657 5347 ft 12 kts
2026-05-08 00:36 39.85297 -104.69657 5345 ft 5 kts
2026-05-08 00:36 39.85565 -104.69655 5346 ft 72 kts
2026-05-08 00:36 39.86276 -104.69648 5343 ft 131 kts
2026-05-08 00:37 39.87353 -104.69631 5349 ft 179 kts
2026-05-08 00:37 39.88699 -104.69582 5714 ft 197 kts 357°
2026-05-08 00:37 39.90090 -104.69547 6477 ft 200 kts 349°
2026-05-08 00:38 39.91745 -104.71909 7731 ft 204 kts 277°
2026-05-08 00:38 39.91458 -104.73810 8026 ft 228 kts 246°
2026-05-08 00:38 39.90371 -104.75460 8337 ft 253 kts 227°
2026-05-08 00:38 39.89020 -104.77072 8700 ft 272 kts 225°
2026-05-08 00:39 39.87578 -104.78776 9195 ft 286 kts 226°
2026-05-08 00:39 39.86100 -104.80548 9750 ft 289 kts 227°
2026-05-08 00:39 39.84626 -104.82337 9980 ft 290 kts 227°
2026-05-08 00:39 39.83159 -104.84132 9972 ft 289 kts 227°
2026-05-08 00:40 39.81694 -104.85928 9971 ft 289 kts 227°
2026-05-08 00:40 39.80231 -104.87726 9970 ft 289 kts 227°
2026-05-08 00:40 39.78809 -104.89568 9974 ft 287 kts 232°
2026-05-08 00:40 39.77628 -104.91650 9978 ft 286 kts 244°
2026-05-08 00:41 39.76817 -104.94050 10324 ft 295 kts 255°
2026-05-08 00:41 39.76194 -104.96674 10892 ft 311 kts 256°
2026-05-08 00:41 39.75567 -104.99460 11382 ft 329 kts 256°
2026-05-08 00:41 39.74857 -105.02377 11880 ft 348 kts 253°
2026-05-08 00:42 39.73967 -105.05361 12597 ft 357 kts 250°
2026-05-08 00:42 39.72993 -105.08357 13553 ft 361 kts 249°
2026-05-08 00:42 39.72004 -105.11374 14402 ft 365 kts 249°
2026-05-08 00:42 39.70998 -105.14432 15197 ft 370 kts 250°
2026-05-08 00:43 39.69995 -105.17485 16011 ft 374 kts 250°
2026-05-08 00:43 39.68970 -105.20602 16827 ft 377 kts 250°
2026-05-08 00:43 39.67936 -105.23749 17646 ft 380 kts 250°
2026-05-08 00:43 39.66887 -105.26935 18378 ft 385 kts 250°
2026-05-08 00:44 39.65828 -105.30156 19038 ft 390 kts 251°
2026-05-08 00:44 39.64753 -105.33415 19647 ft 396 kts 251°
2026-05-08 00:44 39.63662 -105.36728 20316 ft 401 kts 251°
2026-05-08 00:44 39.62559 -105.40074 20981 ft 405 kts 251°
2026-05-08 00:45 39.61448 -105.43443 21686 ft 408 kts 251°
2026-05-08 00:45 39.60325 -105.46847 22377 ft 412 kts 251°
2026-05-08 00:45 39.59187 -105.50284 23107 ft 416 kts 251°
2026-05-08 00:45 39.58034 -105.53752 23746 ft 420 kts 251°
2026-05-08 00:46 39.56867 -105.57250 24307 ft 424 kts 251°
2026-05-08 00:46 39.55700 -105.60773 24907 ft 426 kts 251°
2026-05-08 00:46 39.54640 -105.64363 25501 ft 426 kts 254°
2026-05-08 00:46 39.53631 -105.67987 26129 ft 427 kts 254°
2026-05-08 00:47 39.52620 -105.71627 26720 ft 430 kts 255°
2026-05-08 00:47 39.51605 -105.75289 27274 ft 433 kts 254°
2026-05-08 00:47 39.50582 -105.78983 27807 ft 437 kts 254°
2026-05-08 00:47 39.49559 -105.82661 28318 ft 441 kts 254°
2026-05-08 00:48 39.48514 -105.86417 28859 ft 444 kts 254°
2026-05-08 00:48 39.47460 -105.90199 29400 ft 447 kts 254°
2026-05-08 00:48 39.46397 -105.94008 29892 ft 451 kts 254°
2026-05-08 00:48 39.45325 -105.97838 30474 ft 451 kts 254°
2026-05-08 00:49 39.44258 -106.01635 31147 ft 447 kts 255°
2026-05-08 00:49 39.43197 -106.05404 31869 ft 442 kts 255°
2026-05-08 00:49 39.42149 -106.09144 32603 ft 439 kts 256°
2026-05-08 00:49 39.41108 -106.12849 33263 ft 437 kts 256°
2026-05-08 00:50 39.40072 -106.16534 33860 ft 435 kts 256°
2026-05-08 00:50 39.39386 -106.18973 34235 ft 434 kts 256°
2026-05-08 00:50 39.38353 -106.22636 34750 ft 432 kts 256°
2026-05-08 00:50 39.36988 -106.27470 35490 ft 431 kts 256°
2026-05-08 00:51 39.35959 -106.31107 35944 ft 430 kts 256°
2026-05-08 00:51 39.34933 -106.34733 36438 ft 429 kts 256°
2026-05-08 00:51 39.33902 -106.38354 36804 ft 429 kts 256°
2026-05-08 00:51 39.32872 -106.41982 37075 ft 431 kts 256°
2026-05-08 00:52 39.32172 -106.44445 37294 ft 432 kts 256°
2026-05-08 00:52 39.31132 -106.48097 37592 ft 433 kts 256°
2026-05-08 00:52 39.30088 -106.51759 37815 ft 435 kts 256°
2026-05-08 00:52 39.29039 -106.55433 38085 ft 436 kts 255°
2026-05-08 00:53 39.27983 -106.59118 38155 ft 437 kts 256°
2026-05-08 00:53 39.25674 -106.66432 38094 ft 444 kts 250°
2026-05-08 00:54 39.22754 -106.73505 38117 ft 449 kts 245°
2026-05-08 00:54 39.19241 -106.80224 38121 ft 454 kts 239°
2026-05-08 00:55 39.15352 -106.86613 38147 ft 456 kts 238°
2026-05-08 00:55 39.13386 -106.89829 38001 ft 455 kts 238°
2026-05-08 00:55 39.11428 -106.93030 37975 ft 455 kts 238°
2026-05-08 00:56 39.07496 -106.99444 37981 ft 456 kts 238°
2026-05-08 00:56 39.03563 -107.05837 37974 ft 455 kts 238°
2026-05-08 00:57 38.99647 -107.12190 37992 ft 456 kts 238°
2026-05-08 00:57 38.95700 -107.18590 37984 ft 457 kts 238°
2026-05-08 00:58 35.87695 -111.82421 37914 ft 469 kts 232°
2026-05-08 00:58 35.83641 -111.88877 38147 ft 479 kts 237°
2026-05-08 00:58 35.81816 -111.92323 37864 ft 481 kts 241°
2026-05-08 00:59 34.87007 -113.92901 37431 ft 459 kts 240°
2026-05-08 00:59 34.85315 -113.96212 37651 ft 462 kts 239°
2026-05-08 00:59 34.83582 -113.99537 37767 ft 468 kts 239°
2026-05-08 01:00 34.80044 -114.06335 37804 ft 480 kts 239°
2026-05-08 01:00 34.76467 -114.13235 37815 ft 482 kts 239°
2026-05-08 01:01 34.72893 -114.20143 37815 ft 482 kts 239°
2026-05-08 01:01 34.69312 -114.27051 37814 ft 482 kts 239°
2026-05-08 01:02 34.65732 -114.33944 37820 ft 482 kts 239°
2026-05-08 01:02 34.61821 -114.40570 37797 ft 483 kts 232°
2026-05-08 01:03 34.57413 -114.46757 37808 ft 483 kts 230°
2026-05-08 01:03 34.52963 -114.52885 37808 ft 483 kts 230°
2026-05-08 01:04 34.48521 -114.59005 37800 ft 483 kts 230°
2026-05-08 01:04 34.44076 -114.65128 37796 ft 483 kts 230°
2026-05-08 01:05 34.39658 -114.71207 37795 ft 483 kts 230°
2026-05-08 01:05 34.35202 -114.77324 37811 ft 485 kts 230°
2026-05-08 01:06 34.30729 -114.83440 37809 ft 485 kts 230°
2026-05-08 01:06 34.26251 -114.89551 37808 ft 485 kts 230°
2026-05-08 01:07 34.21768 -114.95662 37809 ft 485 kts 230°
2026-05-08 01:07 34.17286 -115.01763 37805 ft 485 kts 230°
2026-05-08 01:08 34.12798 -115.07858 37502 ft 487 kts 230°
2026-05-08 01:08 34.10544 -115.10919 36853 ft 488 kts 230°
2026-05-08 01:08 34.08279 -115.13992 36196 ft 489 kts 230°
2026-05-08 01:08 34.06008 -115.17070 35506 ft 491 kts 230°
2026-05-08 01:09 34.03725 -115.20162 34825 ft 494 kts 230°
2026-05-08 01:09 34.01459 -115.23225 34128 ft 497 kts 229°
2026-05-08 01:09 33.99150 -115.26346 33358 ft 501 kts 229°
2026-05-08 01:09 33.96824 -115.29491 32653 ft 502 kts 230°
2026-05-08 01:10 33.94496 -115.32645 31998 ft 502 kts 230°
2026-05-08 01:10 33.92172 -115.35792 31378 ft 501 kts 230°
2026-05-08 01:10 33.89859 -115.38924 30870 ft 498 kts 229°
2026-05-08 01:10 33.87559 -115.42035 30285 ft 497 kts 229°
2026-05-08 01:11 33.85254 -115.45151 29570 ft 498 kts 229°
2026-05-08 01:11 33.82944 -115.48269 28819 ft 499 kts 229°
2026-05-08 01:11 33.80634 -115.51384 28152 ft 498 kts 229°
2026-05-08 01:11 33.78344 -115.54470 27733 ft 491 kts 229°
2026-05-08 01:12 33.76081 -115.57518 27300 ft 485 kts 229°
2026-05-08 01:12 33.73842 -115.60530 26877 ft 480 kts 229°
2026-05-08 01:12 33.71626 -115.63508 26453 ft 475 kts 229°
2026-05-08 01:12 33.69423 -115.66454 26027 ft 472 kts 229°
2026-05-08 01:13 33.67221 -115.69367 25667 ft 470 kts 229°
2026-05-08 01:13 33.65023 -115.72266 25276 ft 468 kts 229°
2026-05-08 01:13 33.62878 -115.75182 24857 ft 464 kts 231°
2026-05-08 01:13 33.60890 -115.78214 24472 ft 458 kts 235°
2026-05-08 01:14 33.59101 -115.81255 24361 ft 445 kts 237°
2026-05-08 01:14 33.57368 -115.84267 24214 ft 433 kts 237°
2026-05-08 01:14 33.55680 -115.87206 24103 ft 421 kts 237°
2026-05-08 01:14 33.54037 -115.90059 23985 ft 409 kts 237°
2026-05-08 01:15 33.52438 -115.92829 23851 ft 398 kts 237°
2026-05-08 01:15 33.50880 -115.95522 23771 ft 386 kts 237°
2026-05-08 01:15 33.49338 -115.98182 23295 ft 387 kts 237°
2026-05-08 01:15 33.47799 -116.00841 22754 ft 388 kts 237°
2026-05-08 01:16 33.46259 -116.03499 22291 ft 387 kts 237°
2026-05-08 01:16 33.44727 -116.06143 21838 ft 385 kts 237°
2026-05-08 01:16 33.43195 -116.08781 21403 ft 383 kts 237°
2026-05-08 01:16 33.41676 -116.11396 20978 ft 381 kts 237°
2026-05-08 01:17 33.40164 -116.13997 20568 ft 379 kts 237°
2026-05-08 01:17 33.38658 -116.16584 20147 ft 378 kts 236°
2026-05-08 01:17 33.37159 -116.19159 19766 ft 375 kts 237°
2026-05-08 01:17 33.35669 -116.21716 19407 ft 373 kts 236°
2026-05-08 01:18 33.34061 -116.24134 19019 ft 372 kts 225°
2026-05-08 01:18 33.32039 -116.26044 18696 ft 368 kts 210°
2026-05-08 01:18 33.29788 -116.27467 18384 ft 364 kts 205°
2026-05-08 01:18 33.27521 -116.28768 18097 ft 359 kts 204°
2026-05-08 01:19 33.25278 -116.30041 17751 ft 355 kts 204°
2026-05-08 01:19 33.23060 -116.31310 17391 ft 352 kts 205°
2026-05-08 01:19 33.20893 -116.32563 17001 ft 350 kts 205°
2026-05-08 01:19 33.18709 -116.33833 16623 ft 348 kts 205°
2026-05-08 01:20 33.16540 -116.35099 16225 ft 346 kts 205°
2026-05-08 01:20 33.14384 -116.36359 15857 ft 344 kts 205°
2026-05-08 01:20 33.12239 -116.37612 15476 ft 342 kts 205°
2026-05-08 01:20 33.10107 -116.38858 15151 ft 340 kts 205°
2026-05-08 01:21 33.07955 -116.40115 14763 ft 339 kts 206°
2026-05-08 01:21 33.05874 -116.41329 14446 ft 336 kts 205°
2026-05-08 01:21 33.03748 -116.42566 14081 ft 335 kts 205°
2026-05-08 01:21 33.01672 -116.43817 13730 ft 334 kts 209°
2026-05-08 01:22 32.99749 -116.45280 13351 ft 333 kts 216°
2026-05-08 01:22 32.97917 -116.47020 12886 ft 330 kts 220°
2026-05-08 01:22 32.96204 -116.48761 12492 ft 326 kts 221°
2026-05-08 01:22 32.94492 -116.50515 12056 ft 323 kts 221°
2026-05-08 01:23 32.92793 -116.52249 11654 ft 319 kts 221°
2026-05-08 01:23 32.91106 -116.53956 11203 ft 317 kts 221°
2026-05-08 01:23 32.89435 -116.55647 10814 ft 312 kts 221°
2026-05-08 01:23 32.87784 -116.57308 10389 ft 308 kts 221°
2026-05-08 01:24 32.86159 -116.58943 10010 ft 304 kts 221°
2026-05-08 01:24 32.84555 -116.60556 9580 ft 300 kts 221°
2026-05-08 01:24 32.82779 -116.61837 9097 ft 300 kts 198°
2026-05-08 01:24 32.80728 -116.62237 8649 ft 299 kts 184°
2026-05-08 01:25 32.78652 -116.62308 8216 ft 298 kts 181°
2026-05-08 01:25 32.76588 -116.62307 7983 ft 296 kts 181°
2026-05-08 01:25 32.74531 -116.62378 7973 ft 296 kts 193°
2026-05-08 01:25 32.72655 -116.63304 7999 ft 292 kts 220°
2026-05-08 01:26 32.71337 -116.65081 7995 ft 286 kts 243°
2026-05-08 01:26 32.70471 -116.67198 7987 ft 284 kts 249°
2026-05-08 01:26 32.69702 -116.69367 7991 ft 284 kts 250°
2026-05-08 01:26 32.68953 -116.71537 7978 ft 284 kts 251°
2026-05-08 01:27 32.68214 -116.73692 7867 ft 279 kts 251°
2026-05-08 01:27 32.67480 -116.75837 7459 ft 280 kts 251°
2026-05-08 01:27 32.66746 -116.77992 7146 ft 278 kts 251°
2026-05-08 01:27 32.66018 -116.80099 6859 ft 270 kts 251°
2026-05-08 01:28 32.65313 -116.82108 6589 ft 257 kts 251°
2026-05-08 01:28 32.64638 -116.84013 6338 ft 243 kts 254°
2026-05-08 01:28 32.64441 -116.85871 6043 ft 224 kts 288°
2026-05-08 01:28 32.64963 -116.87562 5704 ft 216 kts 294°
2026-05-08 01:29 32.65532 -116.89197 5481 ft 212 kts 294°
2026-05-08 01:29 32.66069 -116.90829 5156 ft 212 kts 293°
2026-05-08 01:29 32.66589 -116.92479 4731 ft 214 kts 292°
2026-05-08 01:29 32.67100 -116.94143 4376 ft 213 kts 291°
2026-05-08 01:30 32.67605 -116.95810 3950 ft 215 kts 291°
2026-05-08 01:30 32.68095 -116.97494 3660 ft 214 kts 289°
2026-05-08 01:30 32.68527 -116.99196 3358 ft 215 kts 287°
2026-05-08 01:30 32.68944 -117.00876 3118 ft 206 kts 287°
2026-05-08 01:31 32.69336 -117.02473 2894 ft 198 kts 287°
2026-05-08 01:31 32.69721 -117.04048 2697 ft 198 kts 287°
2026-05-08 01:31 32.70105 -117.05623 2560 ft 199 kts 286°
2026-05-08 01:31 32.70485 -117.07179 2356 ft 191 kts 286°
2026-05-08 01:32 32.70847 -117.08660 2032 ft 182 kts 286°
2026-05-08 01:32 32.71187 -117.10050 1719 ft 173 kts 285°
2026-05-08 01:32 32.71511 -117.11384 1437 ft 163 kts 285°
2026-05-08 01:32 32.71814 -117.12636 1172 ft 151 kts 285°
2026-05-08 01:33 32.72102 -117.13817 936 ft 148 kts 284°
2026-05-08 01:33 32.72388 -117.14992 772 ft 149 kts 284°
2026-05-08 01:33 32.72684 -117.16222 574 ft 154 kts 284°
2026-05-08 01:33 32.72981 -117.17427 228 ft 151 kts 285°
2026-05-08 01:34 32.73265 -117.18583 30 ft 136 kts 285°
2026-05-08 01:34 32.73446 -117.19339 30 ft 63 kts 286°
2026-05-08 01:34 32.73540 -117.19726 35 ft 44 kts 286°
2026-05-08 01:34 32.73616 -117.20042 31 ft 28 kts 286°
2026-05-08 01:35 32.73600 -117.20202 31 ft 9 kts 221°
2026-05-08 01:35 32.73572 -117.20277 30 ft 11 kts 278°
2026-05-08 01:35 32.73598 -117.20391 26 ft 17 kts 285°
2026-05-08 01:35 32.73607 -117.20533 27 ft 16 kts 271°
2026-05-08 01:36 32.73571 -117.20650 28 ft 16 kts 221°
2026-05-08 01:36 32.73457 -117.20687 29 ft 19 kts 181°
2026-05-08 01:36 32.73377 -117.20688 29 ft 17 kts 181°
2026-05-08 01:36 32.73274 -117.20706 29 ft 4 kts 191°
2026-05-08 01:37 32.73267 -117.20708 29 ft 0 kts 192°
2026-05-08 01:37 32.73266 -117.20708 29 ft 0 kts 192°